Location: Sumpter
(44.7457°N, 118.2022°W)
Time: 06:04:37
(UTC-08:00)

ISS - Visible Passes

Search period start: 20 February 2019 00:00
Search period end: 02 March 2019 00:00
Orbit: 403 x 411 km, 51.6° (Epoch: 21 February)

Date Brightness Start Highest point End Pass type
(mag) Time Alt. Az. Time Alt. Az. Time Alt. Az.
20 Feb -0.4 06:14:24 10° SSE 06:15:25 11° SE 06:16:26 10° ESE visible
22 Feb -1.5 06:05:56 10° SSW 06:08:40 25° SE 06:11:24 10° E visible
23 Feb -0.9 05:15:30 10° SSE 05:17:22 14° SE 05:19:14 10° E visible
24 Feb -3.2 05:58:49 10° SW 06:02:00 57° SE 06:05:13 10° ENE visible
25 Feb -2.2 05:08:26 15° SSW 05:10:35 32° SE 05:13:32 10° ENE visible
26 Feb -1.4 04:19:24 18° SE 04:19:24 18° SE 04:21:34 10° E visible
26 Feb -3.8 05:52:12 10° WSW 05:55:27 67° NNW 05:58:42 10° ENE visible
27 Feb -3.8 05:02:55 41° SW 05:03:54 74° SE 05:07:10 10° ENE visible
28 Feb -1.8 04:13:36 28° E 04:13:36 28° E 04:15:31 10° ENE visible
28 Feb -3.0 05:46:18 13° W 05:48:58 38° NNW 05:52:03 10° NE visible
01 Mar -3.7 04:56:53 50° WNW 04:57:18 55° NNW 05:00:32 10° NE visible
